Location: Arrodets-la-Barthe
(43.0306°N, 0.2829°E)
Time: 02:03:12
(UTC+00:00)

Cosmos 2344 - Pass Details

Date: 29 May 2022
Orbit: 1228 x 3015 km, 63.3° (Epoch: 04 July)

Event Time Altitude Azimuth Distance (km) Brightness Sun altitude
Rises 19:54:32 0° 207° (SSW) 4,427 6.3 -4.7°
Reaches altitude 10° 19:57:30 10° 205° (SSW) 3,334 5.7 -5.2°
Maximum altitude 20:05:05 73° 122° (ESE) 1,279 3.5 -6.3°
Drops below altitude 10° 20:12:34 10° 39° (NE) 3,294 5.8 -7.3°
Sets 20:15:28 0° 38° (NE) 4,371 6.4 -7.8°
